Weather History for KBAF - October, 2012

Change the Weather History Date:

Wednesday, October 10, 2012

  Actual Average Record
Temperature  
Mean Temperature 55 °F -  
Max Temperature 60 °F 62 °F 84 °F (1997)
Min Temperature 48 °F 39 °F 27 °F (2000)
Degree Days  
Heating Degree Days 10    
Growing Degree Days 5 (Base 50)    
Moisture  
Dew Point 49 °F    
Average Humidity 86    
Maximum Humidity 94    
Minimum Humidity 66    
Precipitation  
Precipitation 0.19 in - - ()
Sea Level Pressure  
Sea Level Pressure 29.92 in    
Wind  
Wind Speed 3 mph (NNW)    
Max Wind Speed 16 mph    
Max Gust Speed 26 mph    
Visibility 6 miles    
Events Rain    
Averages and records for this station are not official NWS values.
T = Trace of Precipitation, MM = Missing Value Source: NWS Daily Summary

Daily Weather History Graph

Daily Weather History Graph

Search for Another Location

Airport or City:

Trip Planner

Search our weather history database for the weather conditions in past years. The results will help you decide how hot, cold, wet, or windy it might be!

Date:

Astronomy

Oct. 10, 2012 Rise Set
Actual Time 6:58 AM EDT 6:16 PM EDT
Civil Twilight 6:30 AM EDT 6:44 PM EDT
Nautical Twilight 5:57 AM EDT 7:16 PM EDT
Astronomical Twilight 5:25 AM EDT 7:49 PM EDT
Moon 1:26 AM EDT (10/10) 3:22 PM EDT (10/10)
Length of Visible Light 12h 14m
Length of Day
11h 18m
Waning Crescent, 27% of the Moon is Illuminated
Oct 10
Waning Crescent
Oct 15
New
Oct 21
First Quarter
Oct 29
Full
Nov 6
Last Quarter

Hourly Weather History & Observations

Time (EDT) Temp. Dew Point Humidity Pressure Visibility Wind Dir Wind Speed Gust Speed Precip Events Conditions
12:53 AM 52.0 °F 46.0 °F 80% 30.14 in 10.0 mi Calm Calm - N/A   Overcast
1:53 AM 52.0 °F 45.0 °F 77% 30.13 in 10.0 mi North 3.5 mph - N/A   Overcast
2:53 AM 52.0 °F 44.1 °F 74% 30.11 in 10.0 mi North 3.5 mph - N/A   Overcast
3:31 AM 51.8 °F 44.6 °F 76% 30.08 in 10.0 mi NNE 3.5 mph - N/A   Overcast
3:53 AM 51.1 °F 45.0 °F 80% 30.08 in 10.0 mi Calm Calm - N/A   Overcast
4:53 AM 51.1 °F 45.0 °F 80% 30.06 in 10.0 mi Variable 3.5 mph - N/A   Overcast
5:22 AM 51.8 °F 46.4 °F 82% 30.06 in 10.0 mi NNW 4.6 mph - N/A   Overcast
5:53 AM 51.1 °F 46.0 °F 83% 30.06 in 10.0 mi North 4.6 mph - N/A   Overcast
6:53 AM 50.0 °F 46.9 °F 89% 30.05 in 5.0 mi North 5.8 mph - 0.01 in Rain Light Rain
7:00 AM 50.0 °F 46.4 °F 87% 30.04 in 2.0 mi North 6.9 mph - 0.00 in Rain Light Rain
7:49 AM 50.0 °F 46.4 °F 87% 30.02 in 2.0 mi North 5.8 mph - 0.01 in Rain Light Rain
7:53 AM 50.0 °F 46.9 °F 89% 30.03 in 2.0 mi North 5.8 mph - 0.01 in Rain Light Rain
7:55 AM 50.0 °F 46.4 °F 87% 30.02 in 2.0 mi North 5.8 mph - 0.01 in Rain Light Rain
8:10 AM 50.0 °F 46.4 °F 87% 30.02 in 2.0 mi North 4.6 mph - 0.01 in   Overcast
8:53 AM 50.0 °F 46.9 °F 89% 30.02 in 3.0 mi NNE 4.6 mph - 0.01 in   Overcast
9:53 AM 51.1 °F 48.0 °F 89% 29.99 in 3.0 mi North 8.1 mph - 0.00 in Rain Light Rain
10:53 AM 52.0 °F 48.9 °F 89% 29.95 in 2.0 mi North 5.8 mph - 0.01 in Rain Light Rain
11:53 AM 53.6 °F 50.0 °F 88% 29.90 in 2.0 mi North 5.8 mph - N/A Rain Light Rain
12:41 PM 53.6 °F 51.8 °F 94% 29.88 in 1.5 mi NNE 4.6 mph - 0.03 in Rain Light Rain
12:49 PM 53.6 °F 51.8 °F 94% 29.87 in 3.0 mi North 4.6 mph - 0.03 in Rain Light Rain
12:53 PM 54.0 °F 51.1 °F 90% 29.87 in 2.0 mi North 3.5 mph - 0.03 in Rain Light Rain
1:35 PM 55.4 °F 51.8 °F 88% 29.84 in 2.0 mi Calm Calm - 0.05 in Rain Rain
1:37 PM 55.4 °F 51.8 °F 88% 29.84 in 2.0 mi Calm Calm - 0.06 in Rain Rain
1:53 PM 55.9 °F 53.1 °F 90% 29.84 in 1.5 mi Calm Calm - 0.09 in Rain Rain
2:13 PM 55.4 °F 53.6 °F 94% 29.82 in 3.0 mi Calm Calm - 0.02 in Rain Light Rain
2:28 PM 55.4 °F 53.6 °F 94% 29.81 in 2.5 mi Calm Calm - 0.02 in Rain Light Rain
2:35 PM 55.4 °F 53.6 °F 94% 29.81 in 5.0 mi West 3.5 mph - 0.02 in Rain Light Rain
2:53 PM 57.0 °F 54.0 °F 89% 29.81 in 10.0 mi Calm Calm - 0.02 in   Overcast
3:53 PM 57.9 °F 55.0 °F 90% 29.78 in 10.0 mi South 4.6 mph - N/A   Overcast
4:53 PM 59.0 °F 55.9 °F 90% 29.76 in 10.0 mi SSE 3.5 mph - N/A   Overcast
5:53 PM 60.1 °F 55.0 °F 83% 29.75 in 10.0 mi SW 6.9 mph - N/A   Mostly Cloudy
6:53 PM 57.0 °F 53.1 °F 87% 29.77 in 10.0 mi Calm Calm - N/A   Partly Cloudy
7:31 PM 53.6 °F 51.8 °F 94% 29.76 in 2.5 mi Calm Calm - N/A   Mostly Cloudy
7:53 PM 53.1 °F 51.1 °F 93% 29.77 in 4.0 mi Calm Calm - N/A   Mostly Cloudy
8:03 PM 51.8 °F 50.0 °F 94% 29.77 in 1.8 mi SE 3.5 mph - N/A   Mostly Cloudy
8:11 PM 53.6 °F 51.8 °F 94% 29.77 in 4.0 mi Calm Calm - N/A   Scattered Clouds
8:53 PM 55.0 °F 48.9 °F 80% 29.79 in 4.0 mi WSW 6.9 mph - N/A   Haze
9:53 PM 51.1 °F 39.9 °F 66% 29.85 in 10.0 mi WNW 16.1 mph 24.2 mph N/A   Mostly Cloudy
10:53 PM 50.0 °F 41.0 °F 71% 29.86 in 10.0 mi WNW 13.8 mph 26.5 mph 0.00 in Rain Light Rain
11:53 PM 48.9 °F 39.9 °F 71% 29.88 in 10.0 mi West 8.1 mph - 0.01 in   Scattered Clouds